This is the latest recevied weather packets stored in our database for station/object KQ4KX. If no packets are shown the sender has not sent any weather packets the latest 10 day(s).
| Time | Temp. | Humidity | Pressure | Rain* | Wind** | Luminosity | Snow |
|---|---|---|---|---|---|---|---|
| 1787942509 | 33.33° C | 66% | 1016.9 hPa | 0 mm | - | - | - |
| 1787942350 | 33.33° C | 66% | 1016.9 hPa | 0 mm | - | - | - |
| 1787942020 | 33.89° C | 62% | 1016.8 hPa | 0 mm | - | - | - |
| 1787941928 | 33.89° C | 65% | 1016.9 hPa | 0 mm | - | - | - |
| 1787941720 | 33.89° C | 65% | 1016.9 hPa | 0 mm | - | - | - |
| 1787941633 | 33.33° C | 67% | 1017 hPa | 0 mm | - | - | - |
| 1787941420 | 33.33° C | 67% | 1017 hPa | 0 mm | - | - | - |
| 1787941274 | 33.89° C | 64% | 1017 hPa | 0 mm | - | - | - |
| 1787941090 | 33.89° C | 64% | 1017 hPa | 0 mm | - | - | - |
| 1787940951 | 33.89° C | 66% | 1017.2 hPa | 0 mm | - | - | - |
| 1787940790 | 33.89° C | 66% | 1017.2 hPa | 0 mm | - | - | - |
| 1787940343 | 33.89° C | 65% | 1017.4 hPa | 0 mm | - | - | - |
| 1787940190 | 33.89° C | 65% | 1017.4 hPa | 0 mm | - | - | - |
| 1787939890 | 33.89° C | 66% | 1017.5 hPa | 0 mm | - | - | - |
| 1787939786 | 33.33° C | 66% | 1017.6 hPa | 0 mm | - | - | - |
| 1787939590 | 33.33° C | 66% | 1017.6 hPa | 0 mm | - | - | - |
| 1787938990 | 33.33° C | 65% | 1017.6 hPa | 0 mm | - | - | - |
| 1787938690 | 33.33° C | 66% | 1017.7 hPa | 0 mm | - | - | - |
| 1787938030 | 33.33° C | 66% | 1018 hPa | 0 mm | - | - | - |
| 1787937730 | 32.78° C | 64% | 1018.2 hPa | 0 mm | - | - | - |
| 1787937400 | 32.78° C | 68% | 1018.2 hPa | 0 mm | - | - | - |
| 1787937100 | 32.78° C | 66% | 1018.3 hPa | 0 mm | - | - | - |
| 1787936472 | 32.78° C | 67% | 1018.3 hPa | 0 mm | - | - | - |
| 1787935310 | 32.22° C | 69% | 1018.5 hPa | 0 mm | - | - | - |
| 1787935240 | 32.22° C | 69% | 1018.5 hPa | 0 mm | - | - | - |
* Rain latest hour (hover to see other rain measurements)
** Current wind speed in m/s (hover to see current wind gust speed)